Back to catalog

STARLINK-35019

AliveCommunicationsVLEO
NORAD 65513·PAYLOAD·🇺🇸 United States

Launched Sep 5, 2025 from Cape Canaveral Space Force Station

Loading…

Next Passes (next 24 hours)

TLE

FreshSource: CelesTrak SupGP

Epoch: Sep 14, 2026, 14:54 UTC

1 65513C 25198X   26257.62131944  .00014419  00000+0  42595-3 0  2570
2 65513  53.1567 109.3762 0001300  99.6219 254.2203 15.34388063    17

Track STARLINK-35019 in real time with AllMySat

Download on the App Store